TimeEDT,TemperatureF,Dew PointF,Humidity,Sea Level PressureIn,VisibilityMPH,Wind Direction,Wind SpeedMPH,Gust SpeedMPH,PrecipitationIn,Events,Conditions,WindDirDegrees,DateUTC
12:53 AM,55.0,46.9,74,29.84,10.0,Calm,Calm,-,N/A,,Clear,0,2013-04-29 04:53:00
1:53 AM,53.1,46.9,80,29.84,10.0,Calm,Calm,-,N/A,,Clear,0,2013-04-29 05:53:00
2:53 AM,51.1,46.9,86,29.83,10.0,Calm,Calm,-,N/A,,Clear,0,2013-04-29 06:53:00
3:53 AM,50.0,46.0,86,29.82,10.0,Calm,Calm,-,N/A,,Clear,0,2013-04-29 07:53:00
4:53 AM,48.0,46.0,93,29.83,8.0,Calm,Calm,-,N/A,,Clear,0,2013-04-29 08:53:00
5:53 AM,46.9,45.0,93,29.84,6.0,Calm,Calm,-,N/A,,Clear,0,2013-04-29 09:53:00
6:53 AM,48.9,46.9,93,29.85,5.0,Calm,Calm,-,N/A,,Mostly Cloudy,0,2013-04-29 10:53:00
7:03 AM,50.0,46.4,87,29.84,4.0,Calm,Calm,-,N/A,,Mostly Cloudy,0,2013-04-29 11:03:00
7:53 AM,52.0,50.0,93,29.86,3.0,Calm,Calm,-,N/A,,Overcast,0,2013-04-29 11:53:00
8:38 AM,55.4,51.8,88,29.86,4.0,Variable,4.6,-,N/A,,Overcast,0,2013-04-29 12:38:00
8:53 AM,55.9,50.0,80,29.86,6.0,SSW,4.6,-,N/A,,Haze,210,2013-04-29 12:53:00
9:53 AM,60.1,50.0,69,29.85,10.0,South,5.8,-,N/A,,Mostly Cloudy,190,2013-04-29 13:53:00
10:53 AM,64.0,50.0,60,29.83,10.0,Variable,5.8,-,N/A,,Mostly Cloudy,0,2013-04-29 14:53:00
11:53 AM,68.0,50.0,52,29.82,10.0,Variable,4.6,-,N/A,,Mostly Cloudy,0,2013-04-29 15:53:00
12:53 PM,68.0,50.0,52,29.83,10.0,West,6.9,-,N/A,,Overcast,280,2013-04-29 16:53:00
1:53 PM,66.0,51.1,59,29.83,10.0,West,5.8,-,0.00,Rain,Light Rain,260,2013-04-29 17:53:00
2:53 PM,62.1,55.0,78,29.83,8.0,NW,8.1,-,0.02,Rain,Light Rain,310,2013-04-29 18:53:00
3:44 PM,50.0,46.4,87,29.85,2.0,NNE,3.5,-,0.00,Rain,Light Rain,20,2013-04-29 19:44:00
3:53 PM,48.9,46.9,93,29.85,2.0,NE,6.9,-,0.01,Rain,Light Rain,40,2013-04-29 19:53:00
4:10 PM,48.2,46.4,93,29.85,1.2,East,3.5,-,0.00,Rain,Light Rain,90,2013-04-29 20:10:00
4:44 PM,53.6,51.8,94,29.82,3.0,Calm,Calm,-,0.00,,Overcast,0,2013-04-29 20:44:00
4:53 PM,55.0,53.1,93,29.83,3.0,Calm,Calm,-,0.00,,Overcast,0,2013-04-29 20:53:00
5:41 PM,51.8,48.2,88,29.82,1.2,Calm,Calm,-,0.00,,Overcast,0,2013-04-29 21:41:00
5:49 PM,51.8,48.2,88,29.82,1.0,Calm,Calm,-,0.00,Rain,Light Rain,0,2013-04-29 21:49:00
5:53 PM,51.1,48.9,92,29.83,1.0,ENE,3.5,-,0.00,Rain,Light Rain,60,2013-04-29 21:53:00
6:53 PM,53.1,51.1,93,29.83,1.2,Calm,Calm,-,0.00,,Mostly Cloudy,0,2013-04-29 22:53:00
7:53 PM,54.0,52.0,93,29.82,1.2,Calm,Calm,-,N/A,,Mostly Cloudy,0,2013-04-29 23:53:00
8:03 PM,53.6,51.8,94,29.81,4.0,Calm,Calm,-,N/A,,Mostly Cloudy,0,2013-04-30 00:03:00
8:53 PM,54.0,52.0,93,29.83,4.0,Calm,Calm,-,N/A,,Mostly Cloudy,0,2013-04-30 00:53:00
9:53 PM,54.0,51.1,90,29.85,3.0,Calm,Calm,-,N/A,,Mostly Cloudy,0,2013-04-30 01:53:00
10:05 PM,51.8,51.8,100,29.85,2.0,Calm,Calm,-,N/A,,Partly Cloudy,0,2013-04-30 02:05:00
10:13 PM,51.8,50.0,94,29.85,1.5,Calm,Calm,-,N/A,,Clear,0,2013-04-30 02:13:00
10:50 PM,51.8,50.0,94,29.84,2.0,Calm,Calm,-,N/A,,Overcast,0,2013-04-30 02:50:00
10:53 PM,51.1,48.9,92,29.84,2.0,Calm,Calm,-,N/A,,Overcast,0,2013-04-30 02:53:00
11:43 PM,51.8,50.0,94,29.84,1.5,Calm,Calm,-,N/A,,Mostly Cloudy,0,2013-04-30 03:43:00
11:53 PM,51.1,50.0,96,29.83,1.8,Calm,Calm,-,N/A,,Mostly Cloudy,0,2013-04-30 03:53:00